This demonstration page uses our WeatherBlox Daily Observations layout. Learn more.

Left ArrowRight Arrow

40.92945, -100.16068

Hourly Observations for February 4, 2021

Temp ( °F °C ) Dew Point ( °F °C ) Humidity (%) Winds ( mph kmh ) Pressure ( in mb ) Visibility ( mi km ) Precip ( " mm )
12:15 am 00:15 Cloudy with Light Snow 33 0.7 32 undefined 95 95 N 18 30 29.79 1009 1 1.60934 0.01 0.254
12:35 am 00:35 Windy with Snow Likely 33 0.5 32 -0.1 96 96 N 24 39 29.79 1009 1.25 2.011675 0.02 0.508
12:55 am 00:55 Windy with Snow Likely 33 0.5 31 -0.5 93 93 N 22 35 29.8 1009 2.5 4.02335 0.04 1.016
1:15 am 01:15 Cloudy with Light Snow 33 0.5 31 -0.7 92 92 NNW 17 28 29.82 1010 3 4.82802 N/A
1:35 am 01:35 Cloudy with Light Snow 33 0.5 31 -0.8 91 91 NNW 18 30 29.82 1010 2.5 4.02335 N/A
1:55 am 01:55 Windy with Snow Likely 33 0.3 31 -0.7 93 93 NNW 21 33 29.83 1010 5 8.0467 N/A
2:15 am 02:15 Windy with Snow Likely 32 undefined 29 -1.9 87 87 NNW 24 39 29.86 1011 5 8.0467 N/A
2:35 am 02:35 Windy with Snow Likely 31 -0.7 27 -2.6 87 87 NNW 22 35 29.89 1012 2 3.21868 N/A
2:55 am 02:55 Cloudy 31 -0.7 25 -4.1 78 78 N 25 41 29.89 1012 10 16.0934 N/A
3:15 am 03:15 Cloudy 31 -0.8 24 -4.2 78 78 NNW 17 28 29.9 1013 10 16.0934 N/A
3:35 am 03:35 Cloudy 31 -0.8 25 -3.7 81 81 NNW 16 26 29.89 1012 10 16.0934 N/A
3:55 am 03:55 Cloudy 31 -0.7 26 -3.1 84 84 NNW 16 26 29.89 1012 10 16.0934 N/A
4:15 am 04:15 Cloudy 30 -1 26 -3.1 86 86 NNW 18 30 29.89 1012 10 16.0934 N/A
4:35 am 04:35 Cloudy 31 -0.7 27 -3 85 85 NNW 15 24 29.89 1012 10 16.0934 N/A
4:55 am 04:55 Mostly Cloudy 29 -1.4 25 -4 83 83 NNW 16 26 29.92 1013 10 16.0934 N/A
5:15 am 05:15 Clear 29 -1.5 24 -4.4 81 81 NNW 23 37 29.93 1014 10 16.0934 N/A
5:35 am 05:35 Clear 28 -2.1 22 -5.7 77 77 NNW 21 33 29.94 1014 10 16.0934 N/A
5:55 am 05:55 Clear 27 -2.6 21 -5.9 78 78 NNW 17 28 29.95 1014 10 16.0934 N/A
6:15 am 06:15 Clear 27 -2.8 21 -6 79 79 NNW 23 37 29.96 1015 10 16.0934 N/A
6:35 am 06:35 Hazy 25 -3.7 19 -7.1 78 78 NNW 26 43 29.99 1016 4 6.43736 N/A
6:55 am 06:55 Clear 24 -4.2 18 -7.6 77 77 NNW 20 31 30.01 1016 10 16.0934 N/A
7:15 am 07:15 Clear 24 -4.6 18 -7.8 79 79 NNW 16 26 30.02 1017 10 16.0934 N/A
7:35 am 07:35 Clear 24 -4.6 18 -7.8 79 79 NNW 18 30 30.03 1017 10 16.0934 N/A
7:55 am 07:55 Sunny 24 -4.7 18 -7.7 80 80 NNW 16 26 30.03 1017 10 16.0934 N/A
8:15 am 08:15 Sunny 23 -5 18 -7.7 82 82 NNW 15 24 30.05 1018 10 16.0934 N/A
8:35 am 08:35 Sunny 24 -4.6 18 -7.6 80 80 NNW 18 30 30.04 1017 10 16.0934 N/A
8:55 am 08:55 Sunny 24 -4.2 18 -7.7 77 77 NNW 21 33 30.05 1018 10 16.0934 N/A
9:15 am 09:15 Sunny 25 -3.8 18 -7.9 73 73 NNW 21 33 30.04 1017 10 16.0934 N/A
9:35 am 09:35 Sunny 26 -3.6 19 -7.5 75 75 NNW 21 33 30.04 1017 10 16.0934 N/A
9:55 am 09:55 Sunny 26 -3.3 18 -7.6 72 72 NNW 21 33 30.04 1017 10 16.0934 N/A
10:15 am 10:15 Sunny 27 -3 19 -7.4 72 72 NNW 18 30 30.03 1017 10 16.0934 N/A
10:35 am 10:35 Sunny 28 -2.5 19 -7.3 70 70 NW 21 33 30.03 1017 10 16.0934 N/A
10:55 am 10:55 Sunny 28 -2.1 19 -7.1 69 69 NW 18 30 30.03 1017 10 16.0934 N/A
11:15 am 11:15 Sunny 29 -1.6 19 -7 67 67 NNW 21 33 30.02 1017 10 16.0934 N/A
11:35 am 11:35 Sunny 30 -1.1 20 -6.6 67 67 NW 23 37 30.02 1017 10 16.0934 N/A
11:55 am 11:55 Sunny 31 -0.7 20 -6.5 65 65 NW 25 41 30.01 1016 10 16.0934 N/A
12:15 pm 12:15 Sunny 31 -0.5 20 -6.7 63 63 NW 26 43 30 1016 10 16.0934 N/A
12:35 pm 12:35 Sunny 31 -0.4 20 -6.5 64 64 NW 26 43 30 1016 10 16.0934 N/A
12:55 pm 12:55 Sunny 32 undefined 21 -6.3 63 63 NW 23 37 29.99 1015 10 16.0934 N/A
1:15 pm 13:15 Sunny 32 0.1 21 -6 64 64 NNW 20 31 29.98 1015 10 16.0934 N/A
1:35 pm 13:35 Sunny 33 0.3 22 -5.6 65 65 NNW 18 30 29.96 1015 10 16.0934 N/A
1:55 pm 13:55 Sunny 33 0.5 22 -5.6 64 64 NW 18 30 29.96 1015 10 16.0934 N/A
2:15 pm 14:15 Sunny 34 1.2 24 -4.5 66 66 NW 14 22 29.94 1014 10 16.0934 N/A
2:35 pm 14:35 Sunny 35 1.5 23 -4.9 63 63 NW 13 20 29.93 1014 10 16.0934 N/A
2:55 pm 14:55 Sunny 35 1.8 24 -4.5 63 63 NW 9 15 29.92 1013 10 16.0934 N/A
3:15 pm 15:15 Sunny 36 2.3 24 -4.4 62 62 NW 10 17 29.9 1013 10 16.0934 N/A
3:35 pm 15:35 Sunny 37 2.7 24 -4.5 59 59 NNW 6 9 29.9 1013 10 16.0934 N/A
3:55 pm 15:55 Sunny 38 3.1 24 -4.7 57 57 WNW 7 11 29.9 1012 10 16.0934 N/A
4:15 pm 16:15 Sunny 38 3.1 23 -5.1 55 55 W 3 6 29.9 1012 10 16.0934 N/A
4:35 pm 16:35 Partly Cloudy 38 3.1 23 -4.9 56 56 N N/A 29.9 1012 10 16.0934 N/A
4:55 pm 16:55 Mostly Cloudy 37 3 27 -3 65 65 S 5 7 29.89 1012 10 16.0934 N/A
5:15 pm 17:15 Mostly Cloudy 37 2.7 27 -2.6 68 68 S 8 13 29.89 1012 10 16.0934 N/A
5:35 pm 17:35 Partly Cloudy 36 2.1 26 -3.5 67 67 SW 3 6 29.9 1012 10 16.0934 N/A
5:55 pm 17:55 Mostly Cloudy 35 1.4 26 -3.6 70 70 NNW 5 7 29.91 1013 10 16.0934 N/A
6:35 pm 18:35 Cloudy 35 1.6 24 -4.5 64 64 WNW 10 17 29.91 1013 10 16.0934 N/A
6:55 pm 18:55 Partly Cloudy 35 1.7 22 -5.3 60 60 W 14 22 29.92 1013 10 16.0934 N/A
7:15 pm 19:15 Mostly Cloudy 35 1.8 22 -5.3 60 60 WNW 15 24 29.92 1013 10 16.0934 N/A
7:35 pm 19:35 Partly Cloudy 34 1 23 -5 65 65 W 13 20 29.93 1013 10 16.0934 N/A
7:55 pm 19:55 Mostly Cloudy 34 1.2 24 -4.6 66 66 W 14 22 29.92 1013 10 16.0934 N/A
8:15 pm 20:15 Mostly Cloudy 35 1.5 24 -4.5 65 65 WNW 17 28 29.93 1014 10 16.0934 N/A
8:35 pm 20:35 Partly Cloudy 34 1.2 24 -4.3 67 67 NW 13 20 29.93 1014 10 16.0934 N/A
8:55 pm 20:55 Clear 33 0.6 24 -4.5 69 69 WNW 14 22 29.95 1014 10 16.0934 N/A
9:15 pm 21:15 Clear 32 undefined 24 -4.5 72 72 WNW 9 15 29.96 1014 10 16.0934 N/A
9:35 pm 21:35 Clear 31 -0.5 24 -4.5 75 75 WNW 10 17 29.97 1015 10 16.0934 N/A
9:55 pm 21:55 Clear 30 -1 24 -4.5 77 77 WNW 10 17 29.97 1015 10 16.0934 N/A
10:15 pm 22:15 Clear 30 -1 24 -4.5 77 77 WNW 8 13 29.97 1015 10 16.0934 N/A
10:35 pm 22:35 Clear 28 -2.4 23 -5.2 81 81 W 9 15 29.98 1015 10 16.0934 N/A
10:55 pm 22:55 Clear 28 -2.5 23 -5.2 82 82 WSW 7 11 29.97 1015 10 16.0934 N/A
11:15 pm 23:15 Clear 28 -2.5 23 -5.1 83 83 WSW 6 9 29.97 1015 10 16.0934 N/A
11:35 pm 23:35 Partly Cloudy 28 -2.5 22 -5.3 81 81 WSW 6 9 29.97 1015 10 16.0934 N/A
11:55 pm 23:55 Clear 27 -3 22 -5.6 82 82 WSW 6 9 29.98 1015 10 16.0934 N/A

Powered by AerisWeather